User: anonymous   Login
Location: Kuffner-Sternwarte
(48.2130°N, 16.2960°E)
Time: 05:06:06
(UTC+02:00)
Language:

XW-2F - Orbit

View from above orbital plane
View from above orbital plane
View from above satellite
View from above satellite

Ground track
Ground track

The orbit data is extracted from the following two-line orbital elements,

1 40910U 15049M   19168.74954330  .00000641  00000-0  35514-4 0  9996
2 40910  97.4616 172.4948 0014516 185.9634 261.0867 15.17280371206875
Epoch (UTC): 17 June 2019 17:59:20
Eccentricity: 0.0014516
inclination: 97.4616°
perigee height: 504 km
apogee height: 524 km
right ascension of ascending node: 172.4948°
argument of perigee: 185.9634°
revolutions per day: 15.17280371
mean anomaly at epoch: 261.0867°
orbit number at epoch: 20687

The dashed part of the orbit path shows where the satellite is in the earth's shadow,  

DLR